TimeEST,TemperatureF,Dew PointF,Humidity,Sea Level PressureIn,VisibilityMPH,Wind Direction,Wind SpeedMPH,Gust SpeedMPH,PrecipitationIn,Events,Conditions,WindDirDegrees,DateUTC
12:53 AM,60.1,57.9,93,30.09,10.0,Calm,Calm,-,N/A,,Partly Cloudy,0,2012-01-10 05:53:00
1:53 AM,59.0,57.0,93,30.09,10.0,Calm,Calm,-,N/A,,Scattered Clouds,0,2012-01-10 06:53:00
2:53 AM,57.9,55.0,90,30.08,10.0,Calm,Calm,-,N/A,,Scattered Clouds,0,2012-01-10 07:53:00
3:53 AM,57.9,55.9,93,30.07,10.0,Calm,Calm,-,N/A,,Scattered Clouds,0,2012-01-10 08:53:00
4:53 AM,57.0,55.0,93,30.07,10.0,Calm,Calm,-,N/A,,Scattered Clouds,0,2012-01-10 09:53:00
5:53 AM,55.9,54.0,93,30.08,10.0,Calm,Calm,-,N/A,,Partly Cloudy,0,2012-01-10 10:53:00
6:53 AM,57.0,55.0,93,30.09,10.0,Calm,Calm,-,N/A,,Partly Cloudy,0,2012-01-10 11:53:00
7:53 AM,57.9,55.9,93,30.10,10.0,Calm,Calm,-,N/A,,Scattered Clouds,0,2012-01-10 12:53:00
8:53 AM,66.0,61.0,84,30.12,10.0,Calm,Calm,-,N/A,,Scattered Clouds,0,2012-01-10 13:53:00
9:53 AM,73.0,60.1,64,30.12,10.0,Calm,Calm,-,N/A,,Scattered Clouds,0,2012-01-10 14:53:00
10:53 AM,75.9,57.9,54,30.11,10.0,ESE,5.8,-,N/A,,Scattered Clouds,120,2012-01-10 15:53:00
11:53 AM,75.9,57.0,52,30.07,10.0,Variable,6.9,-,N/A,,Mostly Cloudy,0,2012-01-10 16:53:00
12:53 PM,77.0,57.9,52,30.04,10.0,ESE,10.4,-,N/A,,Mostly Cloudy,110,2012-01-10 17:53:00
1:53 PM,75.0,57.0,53,30.01,10.0,ESE,8.1,16.1,N/A,,Mostly Cloudy,120,2012-01-10 18:53:00
2:53 PM,75.9,55.9,50,30.00,10.0,SE,9.2,-,N/A,,Mostly Cloudy,130,2012-01-10 19:53:00
3:53 PM,75.0,57.9,55,29.99,10.0,SE,12.7,-,N/A,,Mostly Cloudy,130,2012-01-10 20:53:00
4:53 PM,73.0,59.0,61,30.00,10.0,SE,8.1,-,N/A,,Scattered Clouds,140,2012-01-10 21:53:00
5:53 PM,71.1,57.9,63,30.00,10.0,SE,6.9,-,N/A,,Scattered Clouds,140,2012-01-10 22:53:00
6:53 PM,71.1,59.0,66,30.02,10.0,Calm,Calm,-,N/A,,Scattered Clouds,0,2012-01-10 23:53:00
7:53 PM,69.1,57.9,68,30.02,10.0,SSE,4.6,-,N/A,,Partly Cloudy,150,2012-01-11 00:53:00
8:53 PM,68.0,59.0,73,30.01,10.0,SE,4.6,-,N/A,,Partly Cloudy,140,2012-01-11 01:53:00
9:53 PM,66.9,59.0,76,30.01,10.0,SE,3.5,-,N/A,,Partly Cloudy,130,2012-01-11 02:53:00
10:53 PM,61.0,57.9,90,30.02,10.0,Calm,Calm,-,N/A,,Partly Cloudy,0,2012-01-11 03:53:00
11:53 PM,63.0,59.0,87,30.00,10.0,South,4.6,-,N/A,,Partly Cloudy,180,2012-01-11 04:53:00